Flag for India Weather past 2 weeks in Amravati, Maharashtra, India

Now
59 °F

Haze.


Feels Like: 59 °F
Forecast: 56 / 82 °F
Wind: No wind

Location: Nagpur Sonegaon

Current Time: Feb 1, 2015 at 12:16:03 AM

Latest Report: Jan 31, 2015 at 10:40 PM


Visibility: 2 mi

Pressure: 30.07 "Hg

Humidity: 55%

Dew point: 43 °F

Location of AmravatiLocation

Historic Weather in Amravati — Graph

°F

Amravati temperature yesterday

Maximum temperature yesterday: 81 °F (at 3:40 PM)
Minimum temperature yesterday: 48 °F (at 6:40 AM)
Average temperature yesterday: 64 °F

Past Weeks' High & Low Weather Summary

 TemperatureHumidityPressure
High86 °F (Jan 25, 2:40 PM)88% (Jan 25, 7:40 AM)30.18 "Hg (Jan 25, 7:40 AM)
Low48 °F (Jan 20, 5:40 AM)21% (Jan 20, 2:40 PM)29.89 "Hg (Jan 28, 3:40 PM)
Average69 °F54%30.04 "Hg
* Reported Jan 16 10:40 PM — Jan 31 10:40 PM, Amravati, Weather by CustomWeather, © 2014

Note: Actual official high and low records may vary slightly from our data, if they occured in-between our weather recording intervals... More about our weather records

Advertising

Amravati weather history for previous 24 hours

 ConditionsComfort  
Time TempWeatherWind HumidityBarometerVisibility
10:40 PM
Jan 31
59 °FHaze.No wind55%30.07 "Hg2 mi
9:40 PM59 °FHaze.No wind59%30.07 "Hg2 mi
8:40 PM63 °FHaze.No wind39%30.04 "Hg2 mi
7:40 PM66 °FHaze.3 mph56%30.04 "Hg2 mi
5:40 PM77 °FHaze.5 mph61%30.01 "Hg2 mi
4:40 PM79 °FHaze.2 mph24%29.98 "Hg3 mi
3:40 PM81 °FHaze.5 mph23%29.98 "Hg3 mi
1:40 PM77 °FHaze.2 mph28%30.04 "Hg3 mi
12:40 PM75 °FHaze.5 mph27%30.09 "Hg3 mi
11:40 AM72 °FHaze.5 mph33%30.12 "Hg3 mi
10:40 AM70 °FHaze.7 mph50%30.15 "Hg3 mi
9:40 AM64 °FHaze.8 mph60%30.15 "Hg3 mi
7:40 AM48 °FHaze.No wind58%30.12 "Hg2 mi
6:40 AM48 °FHaze.No wind87%30.09 "Hg2 mi
5:40 AM54 °FHaze.2 mph51%30.09 "Hg2 mi
3:40 AM55 °FHaze.2 mph55%30.07 "Hg2 mi
2:40 AM57 °FHaze.No wind51%30.07 "Hg2 mi
1:40 AM57 °FHaze.No wind55%30.09 "Hg2 mi
12:40 AM59 °FHaze.No wind55%30.09 "Hg2 mi
Weather by CustomWeather, © 2014

See weather overviewHow to use our weather pages